User: anonymous   Login
Location: Vesunti
(61.5000°N, 22.8333°E)
Time: 05:38:07
(UTC+00:00)
Language:

AQUARIUS - Orbit

View from above orbital plane
View from above orbital plane
View from above satellite
View from above satellite

Ground track
Ground track

The orbit data is extracted from the following two-line orbital elements,

1 37673U 11024A   20156.78550575 +.00000081 +00000-0 +20299-4 0  9995
2 37673 098.0076 164.5837 0001376 058.6086 114.0431 14.72993331482978
Epoch (UTC): 04 June 2020 18:51:07
Eccentricity: 0.0001376
inclination: 98.0076°
perigee height: 650 km
apogee height: 652 km
right ascension of ascending node: 164.5837°
argument of perigee: 58.6086°
revolutions per day: 14.72993331
mean anomaly at epoch: 114.0431°
orbit number at epoch: 48297

The dashed part of the orbit path shows where the satellite is in the earth's shadow,  

DLR